Location: Arezzo
(43.4170°N, 11.8830°E)
Time: 04:22:10
(UTC+02:00)

ISS - Visible Passes

Search period start: 01 July 2022 00:00
Search period end: 11 July 2022 00:00
Orbit: 414 x 420 km, 51.6° (Epoch: 30 June)

Date Brightness Start Highest point End Pass type
(mag) Time Alt. Az. Time Alt. Az. Time Alt. Az.
01 Jul -3.7 03:22:08 53° SSW 03:22:39 64° SE 03:26:00 10° ENE visible
01 Jul -2.0 04:56:39 10° W 04:59:38 28° NNW 05:02:37 10° NE visible
02 Jul -2.3 02:35:34 29° E 02:35:34 29° E 02:37:41 10° ENE visible
02 Jul -2.5 04:08:28 12° W 04:11:19 37° NNW 04:14:29 10° NE visible
03 Jul -0.9 01:48:58 11° E 01:48:58 11° E 01:49:11 10° E visible
03 Jul -3.2 03:21:51 33° W 03:23:02 53° NNW 03:26:21 10° NE visible
03 Jul -1.4 04:57:41 10° WNW 05:00:20 21° N 05:02:59 10° NE visible
04 Jul -3.5 02:35:10 67° NE 02:35:10 67° NE 02:38:10 10° ENE visible
04 Jul -1.6 04:09:07 10° WNW 04:11:55 24° NNW 04:14:44 10° NE visible
05 Jul -1.8 01:48:26 23° ENE 01:48:26 23° ENE 01:49:54 10° ENE visible
05 Jul -1.9 03:21:19 15° WNW 03:23:32 29° NNW 03:26:32 10° NE visible
05 Jul -1.1 04:58:29 10° NW 05:01:02 20° N 05:03:36 10° NE visible
06 Jul -2.5 02:34:31 34° NW 02:35:10 38° NNW 02:38:21 10° NE visible
06 Jul -1.2 04:10:01 10° NW 04:12:34 20° N 04:15:08 10° NE visible
07 Jul -2.5 01:47:39 41° NNE 01:47:39 41° NNE 01:50:08 10° NE visible
07 Jul -1.3 03:21:27 10° WNW 03:24:07 21° N 03:26:46 10° NE visible
07 Jul -1.2 04:58:53 10° NW 05:01:39 23° NNE 05:04:26 10° ENE visible
08 Jul -1.6 01:00:40 21° NE 01:00:40 21° NE 01:01:54 10° ENE visible
08 Jul -1.5 02:33:32 14° WNW 02:35:38 24° NNW 02:38:28 10° NE visible
08 Jul -1.1 04:10:34 10° NW 04:13:11 21° N 04:15:48 10° ENE visible
09 Jul -1.9 01:46:26 27° NW 01:47:11 30° NNW 01:50:12 10° NE visible
09 Jul -1.0 03:22:08 10° NW 03:24:41 20° N 03:27:14 10° NE visible
09 Jul -1.9 04:58:59 10° NW 05:02:07 34° NNE 05:05:14 10° E visible
10 Jul -2.3 00:59:06 38° N 00:59:06 38° N 01:01:57 10° NE visible
10 Jul -1.0 02:33:35 10° NW 02:36:09 20° N 02:38:43 10° NE visible
10 Jul -1.5 04:10:45 10° NW 04:13:40 27° NNE 04:16:36 10° ENE visible
